Weather History for KBKW - March, 2014

Change the Weather History Date:

Thursday, March 13, 2014

  Actual Average Record
Temperature  
Mean Temperature 22 °F 41 °F  
Max Temperature 28 °F 51 °F 75 °F (2006)
Min Temperature 15 °F 31 °F -7 °F (1960)
Degree Days  
Heating Degree Days 44 24  
Month to date heating degree days 335  
Since 1 July heating degree days 4336  
Cooling Degree Days 0 0  
Month to date cooling degree days 0  
Year to date cooling degree days 0  
Moisture  
Dew Point 11 °F    
Average Humidity 66    
Maximum Humidity 84    
Minimum Humidity 32    
Precipitation  
Precipitation 0.00 in 0.11 in 1.85 in (1993)
Month to date precipitation 1.44  
Year to date precipitation 7.01  
Snow  
Snow 0.00 in - - ()
Month to date snowfall  
Since 1 September snowfall  
Snow Depth -    
Sea Level Pressure  
Sea Level Pressure 29.97 in    
Wind  
Wind Speed 17 mph (NW)    
Max Wind Speed 22 mph    
Max Gust Speed 33 mph    
Visibility 6 miles    
Events Snow    
T = Trace of Precipitation, MM = Missing Value Source: NWS Daily Summary

Daily Weather History Graph

Daily Weather History Graph

Search for Another Location

Airport or City:

Trip Planner

Search our weather history database for the weather conditions in past years. The results will help you decide how hot, cold, wet, or windy it might be!

Date:

Astronomy

Mar. 13, 2014 Rise Set
Actual Time 7:38 AM EDT 7:29 PM EDT
Civil Twilight 7:12 AM EDT 7:55 PM EDT
Nautical Twilight 6:42 AM EDT 8:26 PM EDT
Astronomical Twilight 6:11 AM EDT 8:57 PM EDT
Moon 4:56 PM EDT (3/13) 5:42 AM EDT (3/13)
Length of Visible Light 12h 43m
Length of Day
11h 51m
Waxing Gibbous, 91% of the Moon is Illuminated
Mar 13
Waxing Gibbous
Mar 16
Full
Mar 23
Last Quarter
Mar 30
New
Apr 7
First Quarter

Hourly Weather History & Observations

Time (EDT) Temp. Windchill Dew Point Humidity Pressure Visibility Wind Dir Wind Speed Gust Speed Precip Events Conditions
12:28 AM 21.9 °F 6.2 °F 17.1 °F 82% 29.72 in 2.0 mi NW 21.9 mph 32.2 mph 0.00 in Snow Light Snow
12:47 AM 21.2 °F 5.6 °F 15.8 °F 80% 29.73 in 3.0 mi WNW 20.7 mph 31.1 mph 0.00 in Snow Light Snow
12:51 AM 21.9 °F 6.9 °F 16.0 °F 78% 29.77 in 2.5 mi NW 19.6 mph 31.1 mph 0.00 in Snow Light Snow
1:18 AM 21.9 °F 7.8 °F 15.1 °F 75% 29.73 in 5.0 mi NW 17.3 mph 28.8 mph 0.00 in Snow Light Snow
1:51 AM 21.9 °F 8.7 °F 15.1 °F 75% 29.78 in 3.0 mi WNW 15.0 mph 24.2 mph 0.00 in Snow Light Snow
2:02 AM 21.9 °F 10.4 °F 16.0 °F 78% 29.75 in 2.0 mi NW 11.5 mph 23.0 mph 0.00 in Snow Light Snow
2:11 AM 21.9 °F 9.2 °F 16.0 °F 78% 29.75 in 1.8 mi NW 13.8 mph 24.2 mph 0.00 in Snow Light Snow
2:36 AM 21.0 °F 8.1 °F 16.0 °F 81% 29.76 in 3.0 mi NW 13.8 mph 23.0 mph 0.00 in Snow Light Snow
2:51 AM 21.0 °F 5.0 °F 15.1 °F 78% 29.81 in 3.0 mi NW 21.9 mph 32.2 mph 0.00 in Snow Light Snow
2:58 AM 21.0 °F 5.4 °F 15.1 °F 78% 29.76 in 2.5 mi NW 20.7 mph 32.2 mph 0.00 in Snow Light Snow
3:14 AM 21.0 °F 5.4 °F 14.0 °F 74% 29.77 in 5.0 mi NW 20.7 mph 28.8 mph 0.00 in Snow Light Snow
3:51 AM 19.9 °F 5.2 °F 14.0 °F 78% 29.83 in 4.0 mi NW 17.3 mph 31.1 mph 0.00 in Snow Light Snow
4:48 AM 19.4 °F 4.5 °F 12.2 °F 74% 29.78 in 2.5 mi NW 17.3 mph 25.3 mph 0.00 in Snow Light Snow
4:51 AM 19.0 °F 3.2 °F 12.9 °F 77% 29.88 in 2.0 mi NW 19.6 mph 28.8 mph 0.00 in Snow Light Snow
4:59 AM 19.0 °F 3.6 °F 12.9 °F 77% 29.78 in 1.8 mi NW 18.4 mph 27.6 mph 0.00 in Snow Light Snow
5:37 AM 18.0 °F 2.2 °F 12.9 °F 81% 29.80 in 2.5 mi NW 18.4 mph 26.5 mph 0.00 in Snow Light Snow
5:49 AM 17.6 °F 2.2 °F 12.2 °F 79% 29.81 in 3.0 mi NW 17.3 mph 26.5 mph 0.00 in Snow Light Snow
5:51 AM 19.0 °F 2.4 °F 10.9 °F 71% 29.92 in 3.0 mi NW 21.9 mph 29.9 mph 0.00 in Snow Light Snow
6:05 AM 18.0 °F 4.2 °F 10.0 °F 71% 29.82 in 5.0 mi NW 13.8 mph 32.2 mph 0.00 in Snow Light Snow
6:42 AM 17.1 °F 4.3 °F 12.0 °F 81% 29.85 in 2.5 mi NNW 11.5 mph - 0.00 in Snow Light Snow
6:51 AM 17.1 °F 4.3 °F 12.0 °F 81% 29.97 in 2.5 mi NNW 11.5 mph 20.7 mph 0.00 in Snow Light Snow
7:25 AM 16.0 °F 2.9 °F 12.0 °F 84% 29.87 in 1.5 mi NNW 11.5 mph - 0.00 in Snow Light Snow
7:51 AM 16.0 °F 1.1 °F 10.9 °F 81% 30.01 in 2.5 mi NNW 15.0 mph - 0.00 in Snow Light Snow
8:05 AM 16.0 °F 1.7 °F 9.0 °F 74% 29.90 in 4.0 mi NW 13.8 mph - 0.00 in Snow Light Snow
8:41 AM 15.1 °F -0.6 °F 6.1 °F 68% 29.93 in 9.0 mi NW 16.1 mph 26.5 mph 0.00 in   Overcast
8:51 AM 15.1 °F 1.1 °F 5.0 °F 64% 30.06 in 10.0 mi NW 12.7 mph 26.5 mph 0.00 in   Overcast
9:51 AM 16.0 °F -1.3 °F 5.0 °F 62% 30.10 in 5.0 mi NW 20.7 mph 31.1 mph 0.00 in   Overcast
10:03 AM 16.0 °F 0.6 °F 5.0 °F 62% 29.98 in 9.0 mi NNW 16.1 mph 26.5 mph 0.00 in   Overcast
10:51 AM 18.0 °F 3.1 °F 6.1 °F 60% 30.14 in 10.0 mi NW 16.1 mph 21.9 mph 0.00 in   Overcast
11:28 AM 18.0 °F 1.7 °F 5.0 °F 57% 30.02 in 10.0 mi WNW 19.6 mph 28.8 mph N/A   Mostly Cloudy
11:51 AM 19.0 °F 2.4 °F 3.9 °F 52% 30.16 in 10.0 mi NNW 21.9 mph 33.4 mph N/A   Mostly Cloudy
12:51 PM 21.0 °F 9.3 °F 6.1 °F 53% 30.16 in 10.0 mi NW 11.5 mph 19.6 mph N/A   Mostly Cloudy
1:51 PM 23.0 °F 10.6 °F 6.1 °F 48% 30.16 in 10.0 mi WNW 13.8 mph 21.9 mph N/A   Partly Cloudy
2:51 PM 25.0 °F 12.2 °F 8.1 °F 49% 30.15 in 10.0 mi NNW 16.1 mph 25.3 mph N/A   Clear
3:51 PM 27.0 °F 16.1 °F 8.1 °F 45% 30.16 in 10.0 mi WNW 12.7 mph - N/A   Clear
4:51 PM 28.9 °F 19.2 °F 9.0 °F 43% 30.17 in 10.0 mi NW 11.5 mph - N/A   Clear
5:51 PM 28.0 °F 16.1 °F 9.0 °F 45% 30.17 in 10.0 mi West 16.1 mph - N/A   Clear
6:51 PM 28.0 °F 18.1 °F 9.0 °F 45% 30.19 in 10.0 mi West 11.5 mph 20.7 mph N/A   Clear
7:51 PM 26.1 °F 19.4 °F 8.1 °F 47% 30.22 in 10.0 mi WNW 5.8 mph - N/A   Clear
8:51 PM 25.0 °F 19.3 °F 9.0 °F 51% 30.25 in 10.0 mi West 4.6 mph - N/A   Clear
9:51 PM 25.0 °F 19.3 °F 9.0 °F 51% 30.26 in 10.0 mi West 4.6 mph - N/A   Clear
10:51 PM 23.0 °F 15.8 °F 9.0 °F 55% 30.26 in 10.0 mi SW 5.8 mph - N/A   Clear
11:51 PM 23.0 °F 15.8 °F 9.0 °F 55% 30.25 in 10.0 mi SSW 5.8 mph - N/A   Clear